Miscellaneous Local Product
Issued by NWS Hastings, NE

Home | Current Version | Previous Version | Text Only | Print | Product List | Glossary Off
Versions: 1 2 3 4 5 6 7 8 9 10 11 12 13 14 15 16 17 18 19 20 21 22 23 24 25 26 27 28 29 30 31 32 33 34 35 36 37 38 39 40 41 42 43 44 45 46 47 48 49 50

000
AXUS43 KGID 232202
MISGRI

GID CWA HOURLY WEATHER ROUNDUP
NATIONAL WEATHER SERVICE HASTINGS NE
400 PM CST TUE DEC 23 2014

NOTE: "FAIR" INDICATES FEW OR NO CLOUDS BELOW 12,000 FEET WITH NO
SIGNIFICANT WEATHER AND/OR OBSTRUCTIONS TO VISIBILITY.

...SOUTH CENTRAL NEBRASKA...

CITY           SKY/WX    TMP DP  RH WIND       PRES   REMARKS
GRAND ISLAND   CLOUDY    34  29  82 N26G37    29.91R WCI  21
HASTINGS       CLOUDY    34  29  82 N26G32    29.90R WCI  21
KEARNEY        CLOUDY    34  25  69 NW23G38   29.93R WCI  22
ORD            CLOUDY    32  26  78 NW23G37   29.95R WCI  19
YORK           CLOUDY    36  32  87 N16G24    29.86R WCI  26
AURORA         CLOUDY    35  32  88 N25G33    29.88R WCI  23
LEXINGTON      CLOUDY    32  27  79 N23G36    29.97S WCI  20
HOLDREGE       CLOUDY    32  27  80 N22G29    29.94R WCI  19
HEBRON         RAIN      35  32  88 N16G25    29.87R WCI  25

...NEBRASKA PANHANDLE...

CITY           SKY/WX    TMP DP  RH WIND       PRES   REMARKS
CHADRON        CLOUDY    32  23  69 N8        30.12R WCI  25
ALLIANCE       CLOUDY    29  23  78 N14       30.10R WCI  18
SCOTTSBLUFF    CLOUDY    33  21  61 NW26      30.13R WCI  20
SIDNEY         CLOUDY    30  19  63 N30G37    30.08R WCI  15

...WESTERN AND NORTH CENTRAL NEBRASKA...

CITY           SKY/WX    TMP DP  RH WIND       PRES   REMARKS
VALENTINE      CLOUDY    28  22  78 NW20G28   30.06R WCI  15
AINSWORTH      FLURRIES  28  25  86 NW25G31   30.01R WCI  14
ONEILL         CLOUDY    32  31  95 NW25G32   29.96R FOG     WCI  19
BROKEN BOW     MIX PCPN  30  25  81 N30G37    29.97R WCI  15
IMPERIAL       FLURRIES  31  23  72 N32G38    30.05R WCI  16
NORTH PLATTE   CLOUDY    32  23  69 N24G33    30.02R WCI  19
MCCOOK         CLOUDY    34  25  69 N25G37    29.99R WCI  21

...EASTERN NEBRASKA...

CITY           SKY/WX    TMP DP  RH WIND       PRES   REMARKS
NORFOLK        CLOUDY    35  32  88 N23G32    29.86R WCI  23
SO SIOUX CITY  CLOUDY    38  35  89 N15       29.82R WCI  29
TEKAMAH        LGT RAIN  37  34  89 N12       29.83R FOG     WCI  29
COLUMBUS       CLOUDY    36  28  75 N20G25    29.87R WCI  25
ALBION         LGT SNOW  34  30  86 N21G29    29.88R WCI  22
OMAHA EPPLEY   LGT RAIN  37  34  89 N15G26    29.82R FOG     WCI  28
OFFUTT AFB     RAIN      36  34  91 NW10      29.81R WCI  29
MILLARD        LGT RAIN  37  34  90 N10G16    29.81R WCI  29
LINCOLN        LGT RAIN  36  33  89 N16       29.85R FOG     WCI  26
NEBRASKA CITY  RAIN      35  35 100 N14       29.79R WCI  25
BEATRICE       DRIZZLE   35  34  96 N14       29.83R WCI  26
FALLS CITY     LGT RAIN  35  32  88 NW13G23   29.77R WCI  26

...NORTHERN KANSAS...

CITY           SKY/WX    TMP DP  RH WIND       PRES   REMARKS
GOODLAND       CLOUDY    31  24  75 N31G38    30.02R WCI  16
HILL CITY      LGT RAIN  34  26  72 N28G40    29.96R WCI  21
NORTON         CLOUDY    34  27  75 NW20G33   29.96R WCI  22
PHILLIPSBURG   LGT SNOW  36  32  87 NW20G28   29.95R WCI  25
SMITH CENTER   LGT SNOW  34  30  86 NW21G29   29.92R WCI  22
BELOIT         CLOUDY    36  34  93 NW20      29.88R WCI  25
HAYS           CLOUDY    34  23  64 N26G35    29.92R WCI  21
RUSSELL        LGT SNOW  33  32  96 NW24G35   29.90R FOG     WCI  20
CONCORDIA      LGT RAIN  35  34  96 N17G24    29.86R WCI  25
SALINA         MIX PCPN  37  34  89 NW20      29.85R WCI  27
TOPEKA         CLOUDY    40  35  83 NW8       29.79R WCI  34



USA.gov is the U.S. government's official web portal to all federal, state and local government web resources and services.